Find Starlink 6241

NORAD ID: 56409 Int'l Des: 2023-061 Owner: SPXS Country: US Constellation: starlink operational
LEOCIRCULAR

Live Position

Loading 3D Globe...

About Starlink 6241

Description loading...

Upcoming Passes

Passes for default location (London). Set your location on the main map for personalized predictions.

Altitude History

Loading altitude history...

Two-Line Element Set

1 56409U 23061AM 26105.36300398 .00000834 00000-0 40768-4 0 9996
2 56409 43.0047 339.8899 0001172 263.4681 96.6037 15.26742472162486
Epoch: Apr 15, 2026 • Age: 27 hours

Current Status

Altitude 485.1 km
Velocity 7.63 km/s
Sub-Earth Point 17.92°N, 23.68°W
Launch Date May 4, 2023
Age 2.9 years
Type internet

Technical Details

Classification Payload
Mass 305.00 kg
Dry Mass 290.00 kg
Total Mass 305.00 kg
Length 0.20 m
Diameter 2.80 m
Span 9.00 m
Shape Box + pan
Manufacturer SPXS
Bus Type Starlink
Phase Status In Orbit
Owner/State SPXS/US

Most Searched